When you browse on this site, cookies collect data to enhance your experience and personalize the content and advertising you see.
Visit our Privacy Policy to learn more. By continuing to use the site, you agree to this use of cookies and data.
  • In Lithuania
  • List of Countries
  • For 7 days
  • Water Temperature
  • Satellite Maps
  • Weather Map
  • Weather Widgets
  • user-avatar
    Login

    Hourly Weather Volostkiv

    Today, 21 March, Thursday

    Time Temperature Precipitation Wind Pressure Humidity
    00:00 +3°C° 0 mm 2 mps 754 mmHg 65%
    01:00 +3°C° 0 mm 2 mps 754 mmHg 66%
    02:00 +3°C° 0 mm 1 mps 754 mmHg 69%
    03:00 +2°C° 0 mm 2 mps 754 mmHg 70%
    04:00 +2°C° 0 mm 2 mps 753 mmHg 70%
    05:00 +1°C° 0 mm 2 mps 753 mmHg 70%
    06:00 +1°C° 0 mm 3 mps 753 mmHg 68%
    07:00 +2°C° 0 mm 3 mps 753 mmHg 66%
    08:00 +1°C° 0 mm 4 mps 754 mmHg 63%
    09:00 +4°C° 0 mm 4 mps 753 mmHg 60%
    10:00 +6°C° 0 mm 5 mps 753 mmHg 56%
    11:00 +7°C° 0 mm 5 mps 753 mmHg 52%
    12:00 +8°C° 0 mm 5 mps 753 mmHg 54%
    13:00 +9°C° 0 mm 6 mps 753 mmHg 56%
    14:00 +10°C° 0 mm 6 mps 752 mmHg 57%
    15:00 +9°C° 0 mm 5 mps 752 mmHg 60%
    16:00 +9°C° 0 mm 5 mps 752 mmHg 63%
    17:00 +9°C° 0 mm 5 mps 752 mmHg 65%
    18:00 +10°C° 0 mm 4 mps 752 mmHg 70%
    19:00 +9°C° 0 mm 3 mps 752 mmHg 74%
    20:00 +8°C° 0 mm 3 mps 752 mmHg 79%
    21:00 +8°C° 0 mm 3 mps 752 mmHg 79%
    22:00 +8°C° 0 mm 3 mps 752 mmHg 80%
    23:00 +8°C° 0 mm 3 mps 752 mmHg 81%

    Tomorrow, 22 March, Friday

    Time Temperature Precipitation Wind Pressure Humidity
    00:00 +7°C° 0 mm 3 mps 752 mmHg 83%
    01:00 +7°C° 0 mm 3 mps 752 mmHg 85%
    02:00 +5°C° 0 mm 3 mps 752 mmHg 87%
    03:00 +5°C° 0 mm 3 mps 752 mmHg 88%
    04:00 +5°C° 0 mm 3 mps 752 mmHg 89%
    05:00 +5°C° 0 mm 4 mps 751 mmHg 91%
    06:00 +5°C° 0 mm 4 mps 752 mmHg 90%
    07:00 +6°C° 0 mm 4 mps 752 mmHg 90%
    08:00 +6°C° 0 mm 4 mps 752 mmHg 89%
    09:00 +7°C° 0 mm 5 mps 752 mmHg 88%
    10:00 +7°C° 0 mm 5 mps 752 mmHg 87%
    11:00 +8°C° 0 mm 5 mps 752 mmHg 85%
    12:00 +9°C° 0 mm 5 mps 752 mmHg 83%
    13:00 +9°C° 0 mm 5 mps 752 mmHg 81%
    14:00 +10°C° 0 mm 5 mps 752 mmHg 79%
    15:00 +11°C° 0 mm 4 mps 751 mmHg 77%
    16:00 +11°C° 0 mm 4 mps 751 mmHg 75%
    17:00 +11°C° 0 mm 4 mps 751 mmHg 74%
    18:00 +10°C° 0 mm 4 mps 751 mmHg 76%
    19:00 +10°C° 0 mm 3 mps 751 mmHg 77%
    20:00 +9°C° 0 mm 2 mps 752 mmHg 79%
    21:00 +8°C° 0 mm 2 mps 752 mmHg 82%
    22:00 +7°C° 0 mm 2 mps 752 mmHg 84%
    23:00 +7°C° 0 mm 2 mps 752 mmHg 86%

    Day after tomorrow, 23 March, Saturday

    Time Temperature Precipitation Wind Pressure Humidity
    00:00 +6°C° 0 mm 2 mps 752 mmHg 87%
    01:00 +5°C° 0 mm 2 mps 752 mmHg 88%
    02:00 +5°C° 0 mm 2 mps 752 mmHg 88%
    03:00 +5°C° 0 mm 1 mps 752 mmHg 85%
    04:00 +4°C° 0 mm 1 mps 751 mmHg 81%
    05:00 +4°C° 0 mm 1 mps 751 mmHg 77%
    06:00 +4°C° 0 mm 1 mps 751 mmHg 73%
    07:00 +4°C° 0 mm 0 mps 751 mmHg 69%
    08:00 +4°C° 0 mm 0 mps 751 mmHg 65%
    09:00 +6°C° 0 mm 0 mps 751 mmHg 56%
    10:00 +8°C° 0 mm 1 mps 751 mmHg 47%
    11:00 +10°C° 0 mm 1 mps 750 mmHg 38%
    12:00 +11°C° 0 mm 1 mps 750 mmHg 35%
    13:00 +12°C° 0 mm 1 mps 750 mmHg 32%
    14:00 +13°C° 0 mm 1 mps 749 mmHg 28%
    15:00 +13°C° 0 mm 1 mps 749 mmHg 28%
    16:00 +12°C° 0 mm 0 mps 748 mmHg 28%
    17:00 +12°C° 0 mm 0 mps 748 mmHg 28%
    18:00 +11°C° 0 mm 0 mps 748 mmHg 32%
    19:00 +9°C° 0 mm 0 mps 748 mmHg 36%
    20:00 +8°C° 0 mm 0 mps 748 mmHg 40%
    21:00 +8°C° 0 mm 1 mps 748 mmHg 41%
    22:00 +8°C° 0 mm 1 mps 748 mmHg 43%
    23:00 +7°C° 0 mm 1 mps 747 mmHg 45%

    24 March, Sunday

    Time Temperature Precipitation Wind Pressure Humidity
    00:00 +7°C° 0 mm 1 mps 747 mmHg 46%
    01:00 +7°C° 0 mm 1 mps 747 mmHg 47%
    02:00 +6°C° 0 mm 2 mps 747 mmHg 48%
    03:00 +6°C° 0 mm 2 mps 746 mmHg 52%
    04:00 +6°C° 0 mm 2 mps 746 mmHg 55%
    05:00 +6°C° 0 mm 2 mps 746 mmHg 58%
    06:00 +6°C° 0 mm 2 mps 746 mmHg 63%
    07:00 +7°C° 0 mm 3 mps 746 mmHg 68%
    08:00 +7°C° 0 mm 3 mps 746 mmHg 73%
    09:00 +7°C° 0.6 mm 3 mps 746 mmHg 79%
    10:00 +7°C° 0.6 mm 3 mps 747 mmHg 85%
    11:00 +7°C° 0.6 mm 3 mps 747 mmHg 91%
    12:00 +8°C° 0 mm 3 mps 747 mmHg 83%
    13:00 +9°C° 0 mm 3 mps 746 mmHg 74%
    14:00 +10°C° 0 mm 3 mps 746 mmHg 65%
    15:00 +11°C° 0 mm 3 mps 746 mmHg 61%
    16:00 +11°C° 0 mm 3 mps 746 mmHg 56%
    17:00 +11°C° 0 mm 3 mps 746 mmHg 52%
    18:00 +10°C° 0 mm 3 mps 746 mmHg 55%
    19:00 +9°C° 0 mm 2 mps 746 mmHg 58%
    20:00 +7°C° 0 mm 2 mps 746 mmHg 61%
    21:00 +7°C° 0 mm 2 mps 746 mmHg 63%
    22:00 +7°C° 0 mm 2 mps 745 mmHg 64%
    23:00 +6°C° 0 mm 2 mps 745 mmHg 66%

    25 March, Monday

    Time Temperature Precipitation Wind Pressure Humidity
    00:00 +6°C° 0 mm 2 mps 745 mmHg 68%
    01:00 +5°C° 0 mm 2 mps 745 mmHg 70%
    02:00 +4°C° 0 mm 2 mps 745 mmHg 71%
    03:00 +4°C° 0 mm 2 mps 745 mmHg 73%
    04:00 +3°C° 0 mm 2 mps 745 mmHg 74%
    05:00 +3°C° 0 mm 2 mps 745 mmHg 75%
    06:00 +3°C° 0 mm 2 mps 745 mmHg 73%
    07:00 +3°C° 0 mm 2 mps 745 mmHg 72%
    08:00 +3°C° 0 mm 2 mps 745 mmHg 71%
    09:00 +4°C° 0 mm 3 mps 745 mmHg 64%
    10:00 +5°C° 0 mm 3 mps 745 mmHg 57%
    11:00 +6°C° 0 mm 4 mps 745 mmHg 51%
    12:00 +7°C° 0 mm 5 mps 744 mmHg 50%
    13:00 +7°C° 0 mm 5 mps 744 mmHg 49%
    14:00 +7°C° 0 mm 6 mps 743 mmHg 48%
    15:00 +7°C° 0 mm 6 mps 743 mmHg 48%
    16:00 +7°C° 0 mm 6 mps 742 mmHg 48%
    17:00 +5°C° 0 mm 6 mps 742 mmHg 49%
    18:00 +5°C° 0.1 mm 6 mps 742 mmHg 54%
    19:00 +5°C° 0.1 mm 5 mps 742 mmHg 60%
    20:00 +3°C° 0.1 mm 5 mps 742 mmHg 65%
    21:00 +2°C° 0.1 mm 5 mps 742 mmHg 67%
    22:00 +2°C° 0.1 mm 5 mps 741 mmHg 68%
    23:00 +2°C° 0.1 mm 5 mps 741 mmHg 69%

    26 March, Tuesday

    Time Temperature Precipitation Wind Pressure Humidity
    00:00 +1°C° 0.1 mm 5 mps 741 mmHg 72%
    01:00 +1°C° 0.1 mm 5 mps 740 mmHg 74%
    02:00 +1°C° 0.1 mm 6 mps 740 mmHg 76%
    03:00 +1°C° 0.2 mm 6 mps 739 mmHg 76%
    04:00 -1°C° 0.2 mm 7 mps 739 mmHg 76%
    05:00 -1°C° 0.2 mm 7 mps 739 mmHg 75%
    06:00 -1°C° 0.1 mm 7 mps 739 mmHg 74%
    07:00 -1°C° 0.1 mm 7 mps 738 mmHg 73%
    08:00 -1°C° 0.1 mm 7 mps 738 mmHg 71%
    09:00 -1°C° 0.3 mm 7 mps 738 mmHg 69%
    10:00 0°C° 0.3 mm 7 mps 738 mmHg 66%
    11:00 0°C° 0.3 mm 7 mps 738 mmHg 64%
    12:00 +2°C° 0.3 mm 7 mps 738 mmHg 62%
    13:00 +2°C° 0.3 mm 7 mps 738 mmHg 59%
    14:00 +2°C° 0.3 mm 7 mps 738 mmHg 57%
    15:00 +2°C° 0.3 mm 7 mps 738 mmHg 62%
    16:00 0°C° 0.3 mm 8 mps 738 mmHg 66%
    17:00 0°C° 0.3 mm 8 mps 738 mmHg 71%
    18:00 -1°C° 0.2 mm 7 mps 739 mmHg 74%
    19:00 -1°C° 0.2 mm 6 mps 739 mmHg 77%
    20:00 -1°C° 0.2 mm 6 mps 740 mmHg 80%
    21:00 -1°C° 0.2 mm 6 mps 740 mmHg 82%
    22:00 -2°C° 0.2 mm 6 mps 740 mmHg 83%
    23:00 -2°C° 0.2 mm 6 mps 741 mmHg 84%
    Show more